GFSFLT2_prec_precacc_108.txt.gz
Total_Precipitation_Accumulation
8.36 7.58 5.71 5.02 3.66 2.81 3.96 5.42 6.09 5.61 3.91 3.42 3.40 2.78 2.39 2.14 1.83 1.61 2.07 2.37 1.56 1.31 0.76 0.43 0.33 0.34 0.28 0.36 0.17 0.07 0.10 0.20
7.64 8.95 8.46 3.91 2.83 2.27 2.98 4.40 5.94 6.80 5.91 4.75 3.29 2.19 2.33 3.01 2.93 2.37 2.05 2.09 1.89 1.74 1.52 1.29 0.84 0.68 0.51 0.40 0.31 0.37 0.35 0.29
4.90 7.55 6.17 3.45 1.95 1.51 1.83 3.59 3.55 3.13 3.16 4.03 3.09 2.18 1.71 1.33 1.82 1.78 1.55 1.46 1.65 1.83 1.63 1.59 1.46 0.94 0.98 0.71 0.64 0.50 0.48 0.41
1.92 3.62 4.20 2.93 1.75 1.42 1.13 1.80 2.75 3.15 1.80 1.93 1.89 1.88 1.63 1.05 1.04 1.02 1.28 1.02 1.05 1.75 1.50 1.19 1.17 0.76 0.86 0.68 0.47 0.43 0.52 0.39
0.97 1.50 1.81 2.28 1.82 1.50 1.37 1.27 1.34 2.96 1.97 0.98 1.08 1.26 1.07 0.89 0.54 0.66 0.89 0.92 0.51 0.60 1.06 0.70 0.54 0.45 0.65 0.54 0.36 0.33 0.41 0.32
0.59 0.61 0.69 0.98 1.34 1.26 0.94 1.06 1.12 1.40 1.78 0.86 0.65 0.89 0.47 0.49 0.27 0.29 0.41 0.47 0.39 0.31 0.36 0.51 0.41 0.45 0.51 0.61 0.44 0.32 0.25 0.33
0.32 0.40 0.35 0.53 0.82 1.06 0.97 0.68 0.80 0.87 1.22 0.89 0.46 0.44 0.29 0.30 0.16 0.16 0.16 0.23 0.45 0.45 0.37 0.36 0.48 0.46 0.48 0.54 0.49 0.34 0.36 0.37
0.29 0.35 0.32 0.44 0.74 0.90 1.05 0.94 0.76 0.79 0.75 0.69 0.45 0.37 0.30 0.21 0.14 0.16 0.11 0.19 0.40 0.52 0.50 0.46 0.56 0.53 0.69 0.62 0.59 0.46 0.41 0.43
0.29 0.33 0.50 0.49 0.48 0.57 0.88 0.96 0.80 0.67 0.52 0.53 0.47 0.40 0.29 0.19 0.13 0.13 0.15 0.16 0.34 0.47 0.61 0.77 0.69 0.53 0.66 0.64 0.58 0.53 0.50 0.48
0.20 0.23 0.68 0.61 0.49 0.46 0.61 0.88 0.88 0.66 0.51 0.51 0.41 0.29 0.28 0.20 0.13 0.12 0.16 0.28 0.46 0.47 0.46 0.71 0.60 0.41 0.37 0.51 0.50 0.56 0.55 0.61
0.53 0.34 0.43 0.65 0.72 0.54 0.52 0.71 0.81 0.66 0.47 0.69 0.74 0.64 0.31 0.28 0.27 0.19 0.22 0.40 0.50 0.50 0.45 0.56 0.64 0.41 0.23 0.32 0.37 0.49 0.57 0.60
0.35 0.47 0.46 0.57 0.62 0.58 0.63 0.62 0.78 0.55 0.41 0.76 0.80 1.25 1.03 0.42 0.28 0.21 0.28 0.33 0.47 0.53 0.51 0.51 0.62 0.45 0.30 0.32 0.24 0.29 0.45 0.54
0.10 0.27 0.28 0.44 0.41 0.29 0.36 0.35 0.57 0.42 0.45 0.54 0.94 1.07 1.79 1.02 0.53 0.24 0.20 0.24 0.31 0.40 0.56 0.51 0.62 0.61 0.57 0.50 0.38 0.24 0.25 0.38
0.02 0.04 0.13 0.21 0.26 0.29 0.18 0.23 0.33 0.51 0.56 0.65 0.72 0.82 1.18 1.43 0.84 0.59 0.38 0.33 0.24 0.39 0.46 0.46 0.55 0.47 0.42 0.36 0.44 0.47 0.44 0.35
0.02 0.03 0.06 0.08 0.16 0.28 0.25 0.37 0.40 0.61 0.73 0.88 0.67 0.72 0.97 1.14 1.00 0.85 0.76 0.86 0.64 0.29 0.34 0.30 0.35 0.39 0.17 0.25 0.22 0.24 0.21 0.31
0.06 0.05 0.05 0.03 0.06 0.10 0.09 0.15 0.13 0.15 0.18 0.47 0.75 0.81 1.20 1.48 1.11 0.97 0.78 0.62 0.69 0.56 0.43 0.41 0.37 0.35 0.25 0.23 0.09 0.12 0.19 0.31
0.03 0.08 0.09 0.04 0.07 0.05 0.08 0.10 0.14 0.14 0.09 0.13 0.42 0.70 0.58 1.10 1.24 1.18 0.96 0.77 0.69 0.73 0.59 0.55 0.47 0.51 0.31 0.22 0.19 0.15 0.22 0.34
0.06 0.08 0.09 0.13 0.13 0.13 0.09 0.13 0.13 0.10 0.09 0.12 0.20 0.42 0.86 0.97 1.15 0.95 1.01 0.97 0.97 1.19 1.25 0.88 0.64 0.56 0.60 0.35 0.32 0.31 0.25 0.30
0.16 0.20 0.21 0.16 0.13 0.14 0.17 0.17 0.15 0.15 0.16 0.28 0.38 0.49 0.82 0.98 1.03 0.94 0.89 0.94 0.87 0.91 1.12 1.18 0.99 0.72 0.67 0.60 0.49 0.38 0.34 0.39
0.27 0.44 0.47 0.44 0.37 0.34 0.37 0.41 0.40 0.40 0.44 0.63 0.62 0.46 0.45 0.84 1.03 1.08 0.93 1.02 1.14 1.10 1.15 1.04 1.08 1.11 0.90 0.73 0.56 0.47 0.47 0.45

GFSFLT2_prec_precacc_111.txt.gz
Total_Precipitation_Accumulation
8.36 7.58 5.71 5.02 3.66 2.81 3.96 5.42 6.09 5.61 3.91 3.42 3.40 2.78 2.39 2.14 1.83 1.61 2.07 2.37 1.56 1.31 0.76 0.43 0.33 0.34 0.28 0.36 0.17 0.07 0.10 0.33
7.64 8.95 8.46 3.91 2.83 2.27 2.98 4.40 5.94 6.80 5.91 4.75 3.29 2.19 2.33 3.01 2.93 2.37 2.05 2.09 1.89 1.74 1.52 1.29 0.84 0.68 0.51 0.40 0.31 0.37 0.35 0.34
4.90 7.55 6.17 3.45 1.95 1.51 1.83 3.59 3.55 3.13 3.16 4.03 3.09 2.18 1.71 1.33 1.82 1.78 1.55 1.46 1.65 1.83 1.63 1.59 1.46 0.94 0.98 0.71 0.64 0.50 0.48 0.41
1.92 3.62 4.21 2.94 1.75 1.42 1.13 1.80 2.75 3.15 1.80 1.93 1.89 1.88 1.63 1.05 1.04 1.02 1.28 1.02 1.05 1.75 1.50 1.19 1.17 0.76 0.86 0.68 0.47 0.43 0.52 0.40
0.97 1.50 1.81 2.29 1.83 1.50 1.37 1.27 1.34 2.96 1.97 0.98 1.08 1.26 1.07 0.89 0.54 0.66 0.89 0.92 0.51 0.60 1.06 0.70 0.54 0.45 0.65 0.54 0.36 0.33 0.41 0.32
0.62 0.66 0.70 0.98 1.35 1.27 0.95 1.06 1.12 1.40 1.78 0.86 0.65 0.89 0.47 0.49 0.27 0.29 0.41 0.47 0.39 0.31 0.36 0.51 0.41 0.45 0.51 0.61 0.44 0.32 0.25 0.34
0.33 0.43 0.40 0.60 0.87 1.11 1.00 0.73 0.85 0.87 1.24 0.90 0.46 0.44 0.29 0.30 0.16 0.16 0.16 0.23 0.45 0.45 0.37 0.36 0.48 0.46 0.48 0.54 0.49 0.34 0.36 0.38
0.29 0.35 0.32 0.44 0.76 0.93 1.11 1.04 0.89 0.85 0.88 0.74 0.45 0.37 0.30 0.21 0.14 0.16 0.11 0.19 0.40 0.52 0.50 0.46 0.56 0.53 0.69 0.62 0.59 0.46 0.41 0.45
0.29 0.33 0.50 0.49 0.48 0.58 0.91 0.99 0.90 0.76 0.64 0.68 0.57 0.47 0.30 0.19 0.13 0.13 0.15 0.16 0.34 0.47 0.61 0.77 0.69 0.53 0.66 0.64 0.58 0.53 0.50 0.50
0.20 0.23 0.68 0.61 0.49 0.46 0.62 0.91 0.92 0.71 0.55 0.62 0.56 0.36 0.32 0.22 0.13 0.12 0.16 0.28 0.46 0.47 0.46 0.71 0.60 0.41 0.37 0.51 0.50 0.56 0.56 0.63
0.53 0.34 0.43 0.65 0.72 0.54 0.52 0.71 0.81 0.68 0.49 0.72 0.91 0.68 0.35 0.32 0.28 0.20 0.22 0.40 0.50 0.50 0.45 0.56 0.64 0.41 0.23 0.32 0.37 0.50 0.58 0.62
0.35 0.47 0.46 0.57 0.62 0.58 0.63 0.62 0.78 0.55 0.41 0.77 0.82 1.33 1.06 0.48 0.31 0.22 0.29 0.34 0.47 0.54 0.51 0.51 0.62 0.45 0.30 0.32 0.25 0.30 0.45 0.54
0.10 0.27 0.28 0.44 0.41 0.29 0.36 0.35 0.57 0.42 0.45 0.54 0.94 1.17 1.88 1.02 0.54 0.26 0.22 0.25 0.32 0.41 0.58 0.52 0.65 0.61 0.57 0.50 0.38 0.24 0.26 0.38
0.02 0.04 0.13 0.21 0.26 0.29 0.18 0.23 0.33 0.51 0.56 0.65 0.72 0.83 1.21 1.45 0.84 0.60 0.41 0.45 0.35 0.44 0.60 0.55 0.60 0.52 0.46 0.36 0.44 0.47 0.44 0.35
0.02 0.03 0.06 0.08 0.16 0.28 0.25 0.37 0.40 0.61 0.73 0.88 0.67 0.72 0.98 1.17 1.05 0.90 0.83 1.13 1.14 1.06 1.21 1.04 0.80 0.61 0.28 0.30 0.22 0.24 0.21 0.31
0.06 0.05 0.05 0.03 0.06 0.10 0.09 0.15 0.13 0.15 0.18 0.47 0.75 0.81 1.21 1.50 1.15 1.07 0.85 0.77 0.91 0.92 0.99 1.07 1.06 0.65 0.43 0.29 0.10 0.12 0.19 0.31
0.03 0.08 0.09 0.04 0.07 0.05 0.08 0.10 0.14 0.14 0.09 0.13 0.42 0.70 0.60 1.16 1.33 1.29 1.06 0.89 0.77 0.78 0.65 0.61 0.53 0.71 0.48 0.27 0.22 0.15 0.22 0.34
0.06 0.08 0.09 0.13 0.13 0.13 0.09 0.13 0.13 0.10 0.09 0.12 0.20 0.42 0.86 1.03 1.31 1.12 1.19 1.15 1.07 1.24 1.31 0.98 0.71 0.59 0.65 0.37 0.33 0.31 0.25 0.30
0.16 0.20 0.21 0.16 0.13 0.14 0.17 0.17 0.15 0.15 0.16 0.28 0.38 0.49 0.82 1.01 1.26 1.22 1.12 1.23 1.12 1.06 1.25 1.46 1.41 0.93 0.81 0.71 0.54 0.39 0.34 0.40
0.27 0.44 0.47 0.44 0.37 0.34 0.37 0.41 0.41 0.41 0.45 0.63 0.62 0.46 0.45 0.86 1.35 1.50 1.27 1.28 1.35 1.33 1.38 1.32 1.54 1.60 1.07 0.79 0.59 0.47 0.48 0.45

GFSFLT2_prec_precacc_114.txt.gz
Total_Precipitation_Accumulation
8.36 7.58 5.71 5.02 3.66 2.81 3.96 5.42 6.09 5.61 3.91 3.42 3.40 2.78 2.39 2.14 1.83 1.61 2.07 2.37 1.56 1.31 0.76 0.43 0.33 0.34 0.28 0.36 0.17 0.07 0.13 0.35
7.64 8.95 8.46 3.91 2.83 2.27 2.98 4.40 5.94 6.80 5.91 4.75 3.29 2.19 2.33 3.01 2.93 2.37 2.05 2.09 1.89 1.74 1.52 1.29 0.84 0.68 0.51 0.40 0.31 0.37 0.36 0.36
4.90 7.55 6.17 3.45 1.95 1.51 1.83 3.59 3.55 3.13 3.16 4.03 3.09 2.18 1.71 1.33 1.82 1.78 1.55 1.46 1.65 1.83 1.63 1.59 1.46 0.94 0.98 0.71 0.64 0.50 0.48 0.42
1.92 3.62 4.21 2.94 1.75 1.42 1.13 1.80 2.75 3.15 1.80 1.93 1.89 1.88 1.63 1.05 1.04 1.02 1.28 1.02 1.05 1.75 1.50 1.19 1.17 0.76 0.86 0.68 0.47 0.43 0.52 0.40
0.98 1.52 1.82 2.29 1.83 1.50 1.37 1.27 1.34 2.96 1.97 0.98 1.08 1.26 1.07 0.89 0.54 0.66 0.89 0.92 0.51 0.60 1.06 0.70 0.54 0.45 0.65 0.54 0.36 0.33 0.41 0.32
0.65 0.70 0.74 0.98 1.35 1.27 0.95 1.06 1.12 1.40 1.78 0.86 0.65 0.89 0.47 0.49 0.27 0.29 0.41 0.47 0.39 0.31 0.36 0.51 0.41 0.45 0.51 0.61 0.44 0.32 0.25 0.34
0.36 0.45 0.42 0.60 0.87 1.13 1.05 0.74 0.85 0.88 1.24 0.90 0.46 0.44 0.29 0.30 0.16 0.16 0.16 0.23 0.45 0.45 0.37 0.36 0.48 0.46 0.48 0.54 0.49 0.34 0.36 0.38
0.29 0.35 0.32 0.44 0.77 0.96 1.15 1.13 1.00 0.92 0.92 0.78 0.46 0.37 0.30 0.21 0.14 0.16 0.11 0.19 0.40 0.52 0.50 0.46 0.56 0.53 0.69 0.62 0.59 0.46 0.41 0.45
0.29 0.33 0.50 0.49 0.48 0.58 0.95 1.06 0.97 0.83 0.73 0.86 0.77 0.57 0.34 0.22 0.13 0.13 0.15 0.16 0.34 0.47 0.61 0.77 0.69 0.53 0.66 0.64 0.58 0.53 0.50 0.50
0.20 0.23 0.68 0.61 0.49 0.46 0.62 0.91 0.95 0.79 0.64 0.75 0.69 0.55 0.54 0.57 0.36 0.20 0.20 0.29 0.46 0.47 0.46 0.71 0.60 0.41 0.37 0.51 0.50 0.56 0.56 0.63
0.53 0.34 0.43 0.65 0.72 0.54 0.52 0.71 0.81 0.68 0.50 0.79 1.03 0.82 0.53 0.53 0.53 0.47 0.43 0.52 0.51 0.50 0.45 0.57 0.64 0.41 0.23 0.32 0.37 0.50 0.58 0.62
0.35 0.47 0.46 0.57 0.62 0.58 0.63 0.62 0.78 0.55 0.41 0.77 0.83 1.36 1.09 0.55 0.40 0.31 0.57 0.67 0.68 0.65 0.55 0.52 0.62 0.46 0.30 0.32 0.25 0.30 0.45 0.55
0.10 0.27 0.28 0.44 0.41 0.29 0.36 0.35 0.57 0.42 0.45 0.54 0.94 1.17 1.89 1.03 0.55 0.28 0.32 0.39 0.41 0.63 0.89 0.73 0.75 0.66 0.63 0.57 0.39 0.25 0.26 0.39
0.02 0.04 0.13 0.21 0.26 0.29 0.18 0.23 0.33 0.51 0.56 0.65 0.72 0.83 1.21 1.45 0.85 0.61 0.42 0.52 0.56 0.68 1.00 1.05 0.93 0.77 0.68 0.48 0.49 0.49 0.45 0.35
0.02 0.03 0.06 0.08 0.16 0.28 0.25 0.37 0.40 0.61 0.73 0.88 0.67 0.72 0.98 1.17 1.05 0.91 0.85 1.18 1.21 1.23 1.44 1.41 1.24 1.15 0.84 0.85 0.52 0.33 0.26 0.32
0.06 0.05 0.05 0.03 0.06 0.10 0.09 0.15 0.13 0.15 0.18 0.47 0.75 0.81 1.21 1.50 1.15 1.08 0.87 0.81 0.96 0.98 1.10 1.26 1.40 1.49 1.51 1.50 0.96 0.40 0.28 0.32
0.03 0.08 0.09 0.04 0.07 0.05 0.08 0.10 0.14 0.14 0.09 0.13 0.42 0.70 0.60 1.16 1.33 1.29 1.06 0.91 0.80 0.82 0.70 0.67 0.57 0.73 0.52 0.42 0.50 0.35 0.29 0.36
0.06 0.08 0.09 0.13 0.13 0.13 0.09 0.13 0.13 0.10 0.09 0.12 0.20 0.42 0.86 1.03 1.31 1.12 1.19 1.15 1.10 1.30 1.37 1.04 0.75 0.61 0.66 0.38 0.34 0.32 0.26 0.30
0.16 0.20 0.21 0.16 0.13 0.14 0.17 0.17 0.15 0.15 0.16 0.28 0.38 0.49 0.82 1.01 1.26 1.22 1.12 1.23 1.14 1.15 1.38 1.59 1.53 1.02 0.87 0.76 0.59 0.43 0.38 0.46
0.27 0.44 0.47 0.44 0.37 0.34 0.37 0.41 0.41 0.41 0.45 0.63 0.62 0.46 0.45 0.86 1.35 1.50 1.27 1.28 1.36 1.38 1.46 1.47 1.76 1.81 1.17 0.89 0.67 0.56 0.58 0.53

GFSFLT2_prec_precacc_117.txt.gz
Total_Precipitation_Accumulation
8.36 7.58 5.71 5.02 3.66 2.81 3.96 5.42 6.09 5.61 3.91 3.42 3.40 2.78 2.39 2.14 1.83 1.61 2.07 2.37 1.56 1.31 0.76 0.43 0.33 0.34 0.28 0.36 0.17 0.07 0.13 0.35
7.64 8.95 8.46 3.91 2.83 2.27 2.98 4.40 5.94 6.80 5.91 4.75 3.29 2.19 2.33 3.01 2.93 2.37 2.05 2.09 1.89 1.74 1.52 1.29 0.84 0.68 0.51 0.40 0.31 0.37 0.36 0.36
4.90 7.55 6.17 3.45 1.95 1.51 1.83 3.59 3.55 3.13 3.16 4.03 3.09 2.18 1.71 1.33 1.82 1.78 1.55 1.46 1.65 1.83 1.63 1.59 1.46 0.94 0.98 0.71 0.64 0.50 0.49 0.42
1.92 3.62 4.21 2.94 1.75 1.42 1.13 1.80 2.75 3.15 1.80 1.93 1.89 1.88 1.63 1.05 1.04 1.02 1.28 1.02 1.05 1.75 1.50 1.19 1.17 0.76 0.86 0.68 0.47 0.43 0.52 0.40
0.98 1.53 1.82 2.29 1.83 1.50 1.37 1.27 1.34 2.96 1.97 0.98 1.08 1.26 1.07 0.89 0.54 0.66 0.89 0.92 0.51 0.60 1.06 0.70 0.54 0.45 0.65 0.54 0.36 0.33 0.41 0.32
0.65 0.71 0.75 1.00 1.35 1.27 0.95 1.06 1.12 1.40 1.78 0.86 0.65 0.90 0.47 0.49 0.27 0.29 0.41 0.47 0.39 0.31 0.36 0.51 0.41 0.45 0.51 0.61 0.44 0.32 0.25 0.34
0.37 0.45 0.43 0.63 0.89 1.14 1.07 0.75 0.85 0.88 1.24 0.90 0.47 0.44 0.29 0.30 0.16 0.16 0.16 0.23 0.45 0.45 0.37 0.36 0.48 0.46 0.48 0.54 0.49 0.34 0.36 0.38
0.29 0.35 0.32 0.44 0.77 0.96 1.16 1.16 1.03 0.95 0.95 0.80 0.48 0.37 0.30 0.21 0.14 0.16 0.11 0.19 0.40 0.52 0.50 0.46 0.56 0.53 0.69 0.62 0.59 0.46 0.41 0.45
0.29 0.33 0.50 0.49 0.48 0.58 0.95 1.09 1.02 0.90 0.82 0.96 0.87 0.61 0.35 0.22 0.13 0.13 0.17 0.18 0.37 0.48 0.61 0.77 0.69 0.53 0.66 0.64 0.58 0.53 0.50 0.50
0.20 0.23 0.68 0.61 0.49 0.46 0.62 0.92 0.97 0.85 0.75 0.90 0.88 0.68 0.62 0.70 0.50 0.32 0.30 0.51 0.66 0.56 0.50 0.72 0.60 0.41 0.37 0.51 0.50 0.56 0.56 0.63
0.53 0.34 0.43 0.65 0.72 0.54 0.52 0.71 0.81 0.69 0.52 0.84 1.13 0.99 0.74 0.70 0.70 0.73 0.71 0.82 0.82 0.72 0.60 0.63 0.66 0.42 0.24 0.32 0.37 0.50 0.58 0.62
0.35 0.47 0.46 0.57 0.62 0.58 0.63 0.62 0.78 0.55 0.41 0.77 0.83 1.37 1.12 0.58 0.48 0.54 0.87 1.00 1.05 1.05 0.81 0.70 0.77 0.59 0.39 0.35 0.30 0.33 0.47 0.55
0.10 0.27 0.28 0.44 0.41 0.29 0.36 0.35 0.57 0.42 0.45 0.54 0.94 1.17 1.89 1.03 0.56 0.32 0.42 0.48 0.53 0.79 1.18 1.05 1.11 1.04 0.88 0.78 0.59 0.39 0.41 0.50
0.02 0.04 0.13 0.21 0.26 0.29 0.18 0.23 0.33 0.51 0.56 0.65 0.72 0.83 1.21 1.45 0.85 0.61 0.43 0.52 0.58 0.70 1.08 1.14 1.06 1.02 1.14 0.90 0.79 0.67 0.64 0.59
0.02 0.03 0.06 0.08 0.16 0.28 0.25 0.37 0.40 0.61 0.73 0.88 0.67 0.72 0.98 1.17 1.05 0.91 0.85 1.18 1.21 1.24 1.46 1.48 1.28 1.22 0.98 1.12 0.97 0.89 0.85 0.85
0.06 0.05 0.05 0.03 0.06 0.10 0.09 0.15 0.13 0.15 0.18 0.47 0.75 0.81 1.21 1.50 1.15 1.08 0.87 0.81 0.96 0.98 1.12 1.30 1.46 1.50 1.53 1.56 1.23 1.06 0.86 0.76
0.03 0.08 0.09 0.04 0.07 0.05 0.08 0.10 0.14 0.14 0.09 0.13 0.42 0.70 0.60 1.16 1.33 1.29 1.06 0.91 0.80 0.82 0.71 0.68 0.59 0.75 0.52 0.44 0.53 0.43 0.42 0.50
0.06 0.08 0.09 0.13 0.13 0.13 0.09 0.13 0.13 0.10 0.09 0.12 0.20 0.42 0.86 1.03 1.31 1.12 1.19 1.15 1.10 1.30 1.37 1.05 0.77 0.63 0.68 0.41 0.37 0.34 0.27 0.31
0.16 0.20 0.21 0.16 0.13 0.14 0.17 0.17 0.15 0.15 0.16 0.28 0.38 0.49 0.82 1.01 1.26 1.22 1.12 1.23 1.14 1.15 1.38 1.60 1.55 1.05 0.91 0.78 0.61 0.44 0.39 0.46
0.27 0.44 0.47 0.44 0.37 0.34 0.37 0.41 0.41 0.41 0.45 0.63 0.62 0.46 0.45 0.86 1.35 1.50 1.27 1.28 1.36 1.38 1.47 1.48 1.78 1.84 1.20 0.93 0.69 0.57 0.58 0.53